This demonstration page uses our WeatherBlox Daily Observations layout. Learn more.

Left ArrowRight Arrow

39.12711, -84.51439

Hourly Observations for March 13, 2021

Temp ( °F °C ) Dew Point ( °F °C ) Humidity (%) Winds ( mph kmh ) Pressure ( in mb ) Visibility ( mi km ) Precip ( " mm )
12:53 am 00:53 Clear 49 9.4 26 -3.3 41 41 N 6 9 30.41 1030 10 16.0934 0 0
1:53 am 01:53 Clear 47 8.3 24 -4.4 41 41 N 13 20 30.43 1031 10 16.0934 0 0
2:53 am 02:53 Clear 45 7.2 23 -5 42 42 N 9 15 30.43 1030 10 16.0934 0 0
3:53 am 03:53 Clear 41 5 21 -6.1 45 45 NNE 9 15 30.42 1030 10 16.0934 0 0
4:53 am 04:53 Clear 41 5 18 -7.8 39 39 NNE 6 9 30.43 1031 10 16.0934 0 0
5:53 am 05:53 Clear 40 4.4 16 -8.9 38 38 NNE 8 13 30.45 1031 10 16.0934 0 0
6:53 am 06:53 Mostly Cloudy 40 4.4 18 -7.8 41 41 NNE 6 9 30.47 1032 10 16.0934 0 0
7:53 am 07:53 Cloudy 40 4.4 19 -7.2 43 43 NNE 5 7 30.48 1032 10 16.0934 0 0
8:53 am 08:53 Mostly Sunny 42 5.6 20 -6.7 41 41 NE 6 9 30.49 1033 10 16.0934 0 0
9:53 am 09:53 Sunny 43 6.1 21 -6.1 42 42 E 3 6 30.48 1032 10 16.0934 0 0
10:53 am 10:53 Sunny 45 7.2 23 -5 42 42 VRB 5 7 30.47 1032 10 16.0934 0 0
11:53 am 11:53 Sunny 47 8.3 20 -6.7 34 34 VRB 3 6 30.46 1032 10 16.0934 0 0
12:53 pm 12:53 Sunny 49 9.4 23 -5 36 36 Calm 30.44 1031 10 16.0934 0 0
1:53 pm 13:53 Sunny 51 10.6 24 -4.4 35 35 N 6 9 30.41 1030 10 16.0934 0 0
2:53 pm 14:53 Sunny 52 11.1 21 -6.1 30 30 VRB 3 6 30.4 1029 10 16.0934 0 0
3:53 pm 15:53 Sunny 53 11.7 21 -6.1 28 28 Calm 30.38 1029 10 16.0934 0 0
4:53 pm 16:53 Sunny 53 11.7 21 -6.1 28 28 Calm 30.36 1028 10 16.0934 0 0
5:53 pm 17:53 Sunny 52 11.1 21 -6.1 30 30 NW 3 6 30.36 1028 10 16.0934 0 0
6:53 pm 18:53 Clear 49 9.4 24 -4.4 38 38 NNW 3 6 30.36 1028 10 16.0934 0 0
7:53 pm 19:53 Clear 43 6.1 31 -0.6 63 63 Calm 30.36 1028 10 16.0934 0 0
8:53 pm 20:53 Clear 39 3.9 32 0 76 76 Calm 30.36 1028 10 16.0934 0 0
9:53 pm 21:53 Clear 38 3.3 29 -1.7 70 70 Calm 30.36 1028 10 16.0934 0 0
10:53 pm 22:53 Clear 36 2.2 31 -0.6 82 82 Calm 30.35 1028 10 16.0934 0 0
11:53 pm 23:53 Clear 35 1.7 30 -1.1 82 82 NE 3 6 30.34 1027 10 16.0934 0 0

Powered by AerisWeather